Joplin Regional Airport Joplin US
ICAO: KJLN
IATA: JLN
Category: Large
Scheduled Services: Yes

Elevation: 981 ft
TransAlt. 18000 ft.

Airport Communications:
ATIS:120.85
KANSAS CITY CNTR:128.6
CTAF:119.8
GND:121.6
COLUMBIA RDO:122.6
TWR:119.8
UNICOM:122.95

KJLN Zoom In..

If you have problems with the map follow the link
https://www.worldairports.se/pages/airport.php?
ICAO=KJLN

Runways:

(A) RW 05 length 3604 ft width 75 ft
---- / hdg 46

(B) RW 13 length 6501 ft width 150 ft
ILS 110.30 / hdg 134

(C) RW 18 length 6500 ft width 100 ft
ILS 108.90 / hdg 178

(D) RW 23 length 3604 ft width 75 ft
---- / hdg 226

(E) RW 31 length 6501 ft width 150 ft
---- / hdg 314

(F) RW 36 length 6500 ft width 100 ft
---- / hdg 358

Location; KJLN
Day. 20 / Time. 20.53 Zulu
* Altimeter: 29.88
* Temperature: 04° c. 39.2°f.
* Wind from: 230° Speed 06 kn.
Dewpoint: -01° c.
Visibility: 10 Statute Miles.
Clouds: Broken 1800 ft.
Clouds: Overcast 2800 ft.

KJLN 202053Z 23006KT 10SM BKN018 OVC028 04/M01 A2988 RMK AO2 SLP124 T00441006 53000


Wind From 230°
Speed 06 kn.

 
 
jpsmedia.com for Web Design worldairports.se 2019   terms of use